Location: ????
(30.1475°N, 31.1342°E)
Time: 21:20:22
(UTC+00:00)

Cosmos 2100 Rocket - Visible Passes

Search period start: 30 March 2023 00:00
Search period end: 09 April 2023 00:00
Orbit: 956 x 999 km, 82.9° (Epoch: 30 March)

Date Brightness Start Highest point End Pass type
(mag) Time Alt. Az. Time Alt. Az. Time Alt. Az.
30 Mar 7.0 18:04:13 10° WNW 18:06:53 13° W 18:09:32 10° WSW visible
31 Mar 4.6 16:42:06 10° NNW 16:48:20 63° W 16:54:27 10° S visible
01 Apr 6.0 17:08:50 10° NNW 17:14:15 31° W 17:19:37 10° SSW visible
02 Apr 6.9 17:36:39 10° NW 17:40:01 15° W 17:43:22 10° WSW visible
04 Apr 5.9 16:41:43 10° NNW 16:47:20 35° W 16:52:54 10° SSW visible
05 Apr 6.9 17:09:13 10° NW 17:13:08 17° W 17:17:01 10° WSW visible
06 Apr 7.1 03:02:44 10° ESE 03:06:40 17° E 03:10:37 10° NE visible
08 Apr 6.9 16:41:54 10° NW 16:46:15 20° W 16:50:34 10° SW visible
